Location: ????????
(37.6846°N, 24.0673°E)
Time: 12:11:48
(UTC+00:00)

Cosmos 1733 Rocket - Pass Details

Date: 14 July 2020
Orbit: 604 x 627 km, 82.5° (Epoch: 09 August)

Event Time Altitude Azimuth Distance (km) Brightness Sun altitude
Exits shadow 01:29:33 27° 262° (W) 1,174 4.0 -17.2°
Maximum altitude 01:30:23 29° 283° (WNW) 1,119 4.1 -17.1°
Drops below altitude 10° 01:34:10 10° 344° (NNW) 1,957 6.0 -16.5°
Sets 01:36:38 0° 356° (N) 2,866 7.1 -16.2°
